Time,TemperatureF,DewpointF,PressureIn,WindDirection,WindDirectionDegrees,WindSpeedMPH,WindSpeedGustMPH,Humidity,HourlyPrecipIn,Conditions,Clouds,dailyrainin,SoftwareType,DateUTC
2013-10-05 00:04:00,72.5,25.2,30.10,NNW,336,6.9,6.9,17,0.00,CLR,,0.00,WeatherDisplay:10.37,2013-10-05 07:04:00,
2013-10-05 00:09:00,72.2,26.3,30.10,NW,322,7.0,7.0,18,0.00,CLR,,0.00,WeatherDisplay:10.37,2013-10-05 07:09:00,
2013-10-05 00:14:00,71.9,26.1,30.10,NNW,339,6.0,6.0,18,0.00,CLR,,0.00,WeatherDisplay:10.37,2013-10-05 07:14:00,
2013-10-05 00:19:00,71.9,24.7,30.10,NNW,342,10.4,10.4,17,0.00,CLR,,0.00,WeatherDisplay:10.37,2013-10-05 07:19:00,
2013-10-05 00:24:00,70.9,26.5,30.10,North,349,8.1,8.1,19,0.00,CLR,,0.00,WeatherDisplay:10.37,2013-10-05 07:24:00,
2013-10-05 00:29:00,69.2,26.4,30.10,NNW,334,5.8,5.8,20,0.00,CLR,,0.00,WeatherDisplay:10.37,2013-10-05 07:29:00,
2013-10-05 00:34:00,69.3,25.2,30.10,North,9,7.0,7.0,19,0.00,CLR,,0.00,WeatherDisplay:10.37,2013-10-05 07:34:00,
2013-10-05 00:39:00,69.5,25.4,30.10,NW,308,11.5,11.5,19,0.00,CLR,,0.00,WeatherDisplay:10.37,2013-10-05 07:39:00,
2013-10-05 00:44:00,69.8,25.6,30.10,NNW,330,7.0,7.0,19,0.00,CLR,,0.00,WeatherDisplay:10.37,2013-10-05 07:44:00,
2013-10-05 00:49:00,69.2,25.1,30.10,NNW,333,8.1,8.1,19,0.00,CLR,,0.00,WeatherDisplay:10.37,2013-10-05 07:49:00,
2013-10-05 00:54:00,69.7,24.3,30.10,NNW,345,9.0,9.0,18,0.00,CLR,,0.00,WeatherDisplay:10.37,2013-10-05 07:54:00,
2013-10-05 00:59:00,69.7,25.6,30.11,NNW,330,7.0,7.0,19,0.00,CLR,,0.00,WeatherDisplay:10.37,2013-10-05 07:59:00,
2013-10-05 01:04:00,69.1,23.8,30.11,North,356,11.5,11.5,18,0.00,CLR,,0.00,WeatherDisplay:10.37,2013-10-05 08:04:00,
2013-10-05 01:09:00,69.4,25.3,30.11,NW,312,9.2,9.2,19,0.00,CLR,,0.00,WeatherDisplay:10.37,2013-10-05 08:09:00,
2013-10-05 01:14:00,69.0,25.0,30.11,North,360,9.2,9.2,19,0.00,CLR,,0.00,WeatherDisplay:10.37,2013-10-05 08:14:00,
2013-10-05 01:19:00,69.1,26.3,30.11,NNW,347,8.1,8.1,20,0.00,CLR,,0.00,WeatherDisplay:10.37,2013-10-05 08:19:00,
2013-10-05 01:24:00,69.0,25.0,30.11,NW,326,6.9,6.9,19,0.00,CLR,,0.00,WeatherDisplay:10.37,2013-10-05 08:24:00,
2013-10-05 01:29:00,69.2,25.1,30.12,North,354,6.0,6.0,19,0.00,CLR,,0.00,WeatherDisplay:10.37,2013-10-05 08:29:00,
2013-10-05 01:34:00,69.5,24.1,30.12,NNW,335,10.4,10.4,18,0.00,CLR,,0.00,WeatherDisplay:10.37,2013-10-05 08:34:00,
2013-10-05 01:39:00,70.0,23.1,30.12,NW,309,5.0,5.0,17,0.00,CLR,,0.00,WeatherDisplay:10.37,2013-10-05 08:39:00,
2013-10-05 01:44:00,70.3,23.4,30.12,WNW,301,5.8,5.8,17,0.00,CLR,,0.00,WeatherDisplay:10.37,2013-10-05 08:44:00,
2013-10-05 01:49:00,70.3,23.4,30.12,NNW,333,9.2,9.2,17,0.00,CLR,,0.00,WeatherDisplay:10.37,2013-10-05 08:49:00,
2013-10-05 01:54:00,70.4,23.5,30.12,NNW,334,9.2,9.2,17,0.00,CLR,,0.00,WeatherDisplay:10.37,2013-10-05 08:54:00,
2013-10-05 01:59:00,70.4,23.5,30.12,NW,308,3.5,3.5,17,0.00,CLR,,0.00,WeatherDisplay:10.37,2013-10-05 08:59:00,
2013-10-05 02:04:00,70.5,23.5,30.12,WNW,297,9.2,9.2,17,0.00,CLR,,0.00,WeatherDisplay:10.37,2013-10-05 09:04:00,
2013-10-05 02:09:00,70.8,22.3,30.12,NNW,342,8.1,8.1,16,0.00,CLR,,0.00,WeatherDisplay:10.37,2013-10-05 09:09:00,
2013-10-05 02:14:00,71.0,22.5,30.12,NW,315,8.1,8.1,16,0.00,CLR,,0.00,WeatherDisplay:10.37,2013-10-05 09:14:00,
2013-10-05 02:19:00,70.8,23.8,30.12,NW,318,9.0,9.0,17,0.00,CLR,,0.00,WeatherDisplay:10.37,2013-10-05 09:19:00,
2013-10-05 02:24:00,70.9,22.4,30.12,NNW,340,10.4,10.4,16,0.00,CLR,,0.00,WeatherDisplay:10.37,2013-10-05 09:24:00,
2013-10-05 02:29:00,71.0,22.5,30.13,WNW,303,11.5,11.5,16,0.00,CLR,,0.00,WeatherDisplay:10.37,2013-10-05 09:29:00,
2013-10-05 02:34:00,70.9,22.4,30.12,NNW,333,10.4,10.4,16,0.00,CLR,,0.00,WeatherDisplay:10.37,2013-10-05 09:34:00,
2013-10-05 02:39:00,70.9,23.9,30.13,NW,311,9.2,9.2,17,0.00,CLR,,0.00,WeatherDisplay:10.37,2013-10-05 09:39:00,
2013-10-05 02:44:00,70.8,22.3,30.13,WNW,293,5.8,5.8,16,0.00,CLR,,0.00,WeatherDisplay:10.37,2013-10-05 09:44:00,
2013-10-05 02:49:00,70.5,23.5,30.13,West,276,8.1,8.1,17,0.00,CLR,,0.00,WeatherDisplay:10.37,2013-10-05 09:49:00,
2013-10-05 02:54:00,70.5,22.1,30.12,NW,319,10.4,10.4,16,0.00,CLR,,0.00,WeatherDisplay:10.37,2013-10-05 09:54:00,
2013-10-05 02:59:00,70.4,22.0,30.13,NNW,329,6.9,6.9,16,0.00,CLR,,0.00,WeatherDisplay:10.37,2013-10-05 09:59:00,
2013-10-05 03:04:00,70.0,23.1,30.13,North,1,6.9,6.9,17,0.00,CLR,,0.00,WeatherDisplay:10.37,2013-10-05 10:04:00,
2013-10-05 03:09:00,69.8,23.0,30.12,NW,319,8.1,8.1,17,0.00,CLR,,0.00,WeatherDisplay:10.37,2013-10-05 10:09:00,
2013-10-05 03:14:00,69.6,22.8,30.12,NW,324,5.8,5.8,17,0.00,CLR,,0.00,WeatherDisplay:10.37,2013-10-05 10:14:00,
2013-10-05 03:19:00,69.4,24.0,30.13,WNW,302,5.8,5.8,18,0.00,CLR,,0.00,WeatherDisplay:10.37,2013-10-05 10:19:00,
2013-10-05 03:24:00,69.3,23.9,30.13,West,259,3.5,3.5,18,0.00,CLR,,0.00,WeatherDisplay:10.37,2013-10-05 10:24:00,
2013-10-05 03:29:00,68.3,23.1,30.13,West,281,2.3,2.3,18,0.00,CLR,,0.00,WeatherDisplay:10.37,2013-10-05 10:29:00,
2013-10-05 03:34:00,67.2,24.7,30.13,WSW,255,2.3,2.3,20,0.00,CLR,,0.00,WeatherDisplay:10.37,2013-10-05 10:34:00,
2013-10-05 03:39:00,67.1,23.4,30.13,WNW,292,4.6,4.6,19,0.00,CLR,,0.00,WeatherDisplay:10.37,2013-10-05 10:39:00,
2013-10-05 03:44:00,67.7,23.9,30.13,SW,224,3.5,3.5,19,0.00,CLR,,0.00,WeatherDisplay:10.37,2013-10-05 10:44:00,
2013-10-05 03:49:00,67.6,23.8,30.13,NNE,28,3.5,3.5,19,0.00,CLR,,0.00,WeatherDisplay:10.37,2013-10-05 10:49:00,
2013-10-05 03:54:00,66.9,24.5,30.13,NW,304,1.2,1.2,20,0.00,CLR,,0.00,WeatherDisplay:10.37,2013-10-05 10:54:00,
2013-10-05 03:59:00,66.0,23.7,30.13,West,273,3.5,3.5,20,0.00,CLR,,0.00,WeatherDisplay:10.37,2013-10-05 10:59:00,
2013-10-05 04:04:00,65.7,24.7,30.13,WSW,256,1.2,1.2,21,0.00,CLR,,0.00,WeatherDisplay:10.37,2013-10-05 11:04:00,
2013-10-05 04:09:00,65.6,24.6,30.13,WNW,297,2.3,2.3,21,0.00,CLR,,0.00,WeatherDisplay:10.37,2013-10-05 11:09:00,
2013-10-05 04:14:00,65.4,24.4,30.13,West,268,2.3,2.3,21,0.00,CLR,,0.00,WeatherDisplay:10.37,2013-10-05 11:14:00,
2013-10-05 04:19:00,65.2,24.2,30.13,WNW,299,3.0,3.0,21,0.00,CLR,,0.00,WeatherDisplay:10.37,2013-10-05 11:19:00,
2013-10-05 04:24:00,65.1,24.2,30.13,WNW,288,3.0,3.0,21,0.00,CLR,,0.00,WeatherDisplay:10.37,2013-10-05 11:24:00,
2013-10-05 04:29:00,65.6,24.6,30.13,West,281,2.3,2.3,21,0.00,CLR,,0.00,WeatherDisplay:10.37,2013-10-05 11:29:00,
2013-10-05 04:34:00,65.9,23.7,30.13,NW,305,5.8,5.8,20,0.00,CLR,,0.00,WeatherDisplay:10.37,2013-10-05 11:34:00,
2013-10-05 04:39:00,66.3,24.0,30.14,NW,326,4.6,4.6,20,0.00,CLR,,0.00,WeatherDisplay:10.37,2013-10-05 11:39:00,
2013-10-05 04:45:00,66.6,24.2,30.14,West,277,1.2,1.2,20,0.00,CLR,,0.00,WeatherDisplay:10.37,2013-10-05 11:45:00,
2013-10-05 04:50:00,65.5,24.5,30.14,WSW,249,3.5,3.5,21,0.00,CLR,,0.00,WeatherDisplay:10.37,2013-10-05 11:50:00,
2013-10-05 04:55:00,64.7,24.9,30.14,WSW,257,2.3,2.3,22,0.00,CLR,,0.00,WeatherDisplay:10.37,2013-10-05 11:55:00,
2013-10-05 05:00:00,64.9,24.0,30.14,WNW,302,3.5,3.5,21,0.00,CLR,,0.00,WeatherDisplay:10.37,2013-10-05 12:00:00,
2013-10-05 05:05:00,65.5,24.5,30.14,SW,229,2.3,2.3,21,0.00,CLR,,0.00,WeatherDisplay:10.37,2013-10-05 12:05:00,
2013-10-05 05:10:00,66.3,24.0,30.14,WNW,283,3.5,3.5,20,0.00,CLR,,0.00,WeatherDisplay:10.37,2013-10-05 12:10:00,
2013-10-05 05:15:00,66.0,24.9,30.14,NNW,342,6.0,6.0,21,0.00,CLR,,0.00,WeatherDisplay:10.37,2013-10-05 12:15:00,
2013-10-05 05:20:00,66.2,23.9,30.14,NW,311,5.8,5.8,20,0.00,CLR,,0.00,WeatherDisplay:10.37,2013-10-05 12:20:00,
2013-10-05 05:25:00,66.8,23.2,30.14,NW,308,8.1,8.1,19,0.00,CLR,,0.00,WeatherDisplay:10.37,2013-10-05 12:25:00,
2013-10-05 05:30:00,66.9,23.3,30.14,WNW,302,3.5,3.5,19,0.00,CLR,,0.00,WeatherDisplay:10.37,2013-10-05 12:30:00,
2013-10-05 05:35:00,66.2,23.9,30.14,WNW,283,3.5,3.5,20,0.00,CLR,,0.00,WeatherDisplay:10.37,2013-10-05 12:35:00,
2013-10-05 05:40:00,66.2,23.9,30.14,NNW,336,3.5,3.5,20,0.00,CLR,,0.00,WeatherDisplay:10.37,2013-10-05 12:40:00,
2013-10-05 05:45:00,65.2,24.2,30.14,West,280,3.5,3.5,21,0.00,CLR,,0.00,WeatherDisplay:10.37,2013-10-05 12:45:00,
2013-10-05 05:50:00,64.7,23.8,30.14,NW,314,4.6,4.6,21,0.00,CLR,,0.00,WeatherDisplay:10.37,2013-10-05 12:50:00,
2013-10-05 05:55:00,64.2,24.5,30.14,West,269,3.5,3.5,22,0.00,CLR,,0.00,WeatherDisplay:10.37,2013-10-05 12:55:00,
2013-10-05 06:00:00,64.2,24.5,30.14,WNW,283,3.5,3.5,22,0.00,CLR,,0.00,WeatherDisplay:10.37,2013-10-05 13:00:00,
2013-10-05 06:05:00,63.9,24.3,30.14,WSW,256,3.5,3.5,22,0.00,CLR,,0.00,WeatherDisplay:10.37,2013-10-05 13:05:00,
2013-10-05 06:10:00,63.7,24.1,30.14,WSW,248,5.0,5.0,22,0.00,CLR,,0.00,WeatherDisplay:10.37,2013-10-05 13:10:00,
2013-10-05 06:15:00,63.8,24.2,30.14,West,274,5.0,5.0,22,0.00,CLR,,0.00,WeatherDisplay:10.37,2013-10-05 13:15:00,
2013-10-05 06:20:00,64.4,23.6,30.14,WSW,257,5.8,5.8,21,0.00,CLR,,0.00,WeatherDisplay:10.37,2013-10-05 13:20:00,
2013-10-05 06:25:00,64.7,23.8,30.15,NW,319,5.8,5.8,21,0.00,CLR,,0.00,WeatherDisplay:10.37,2013-10-05 13:25:00,
2013-10-05 06:30:00,64.5,23.7,30.15,NW,305,6.9,6.9,21,0.00,CLR,,0.00,WeatherDisplay:10.37,2013-10-05 13:30:00,
2013-10-05 06:35:00,64.5,23.7,30.15,WSW,245,5.8,5.8,21,0.00,CLR,,0.00,WeatherDisplay:10.37,2013-10-05 13:35:00,
2013-10-05 06:40:00,64.6,23.7,30.15,West,276,4.6,4.6,21,0.00,CLR,,0.00,WeatherDisplay:10.37,2013-10-05 13:40:00,
2013-10-05 06:45:00,64.6,23.7,30.15,West,263,5.8,5.8,21,0.00,CLR,,0.00,WeatherDisplay:10.37,2013-10-05 13:45:00,
2013-10-05 06:50:00,64.9,24.0,30.15,West,264,8.1,8.1,21,0.00,CLR,,0.00,WeatherDisplay:10.37,2013-10-05 13:50:00,
2013-10-05 06:55:00,64.6,24.9,30.15,SW,232,4.6,4.6,22,0.00,CLR,,0.00,WeatherDisplay:10.37,2013-10-05 13:55:00,
2013-10-05 07:00:00,64.2,24.5,30.16,WNW,290,4.0,4.0,22,0.00,CLR,,0.00,WeatherDisplay:10.37,2013-10-05 14:00:00,
2013-10-05 07:05:00,64.3,24.6,30.16,West,263,2.3,2.3,22,0.00,CLR,,0.00,WeatherDisplay:10.37,2013-10-05 14:05:00,
2013-10-05 07:10:00,64.2,24.5,30.16,WNW,291,3.5,3.5,22,0.00,CLR,,0.00,WeatherDisplay:10.37,2013-10-05 14:10:00,
2013-10-05 07:15:00,64.5,23.7,30.16,West,268,6.0,6.0,21,0.00,CLR,,0.00,WeatherDisplay:10.37,2013-10-05 14:15:00,
2013-10-05 07:20:00,64.8,23.9,30.16,West,267,2.3,2.3,21,0.00,CLR,,0.00,WeatherDisplay:10.37,2013-10-05 14:20:00,
2013-10-05 07:25:00,64.9,24.0,30.16,West,276,2.3,2.3,21,0.00,CLR,,0.00,WeatherDisplay:10.37,2013-10-05 14:25:00,
2013-10-05 07:30:00,64.7,23.8,30.16,West,265,3.5,3.5,21,0.00,CLR,,0.00,WeatherDisplay:10.37,2013-10-05 14:30:00,
2013-10-05 07:35:00,64.6,23.7,30.16,WNW,283,4.6,4.6,21,0.00,CLR,,0.00,WeatherDisplay:10.37,2013-10-05 14:35:00,
2013-10-05 07:40:00,64.7,24.9,30.17,West,271,6.9,6.9,22,0.00,CLR,,0.00,WeatherDisplay:10.37,2013-10-05 14:40:00,
2013-10-05 07:45:00,65.1,24.2,30.17,NW,308,5.8,5.8,21,0.00,CLR,,0.00,WeatherDisplay:10.37,2013-10-05 14:45:00,
2013-10-05 07:50:00,65.5,25.6,30.17,WNW,294,4.6,4.6,22,0.00,CLR,,0.00,WeatherDisplay:10.37,2013-10-05 14:50:00,
2013-10-05 07:55:00,65.6,24.6,30.17,West,277,5.8,5.8,21,0.00,CLR,,0.00,WeatherDisplay:10.37,2013-10-05 14:55:00,
2013-10-05 08:00:00,65.9,24.8,30.17,WNW,294,5.8,5.8,21,0.00,CLR,,0.00,WeatherDisplay:10.37,2013-10-05 15:00:00,
2013-10-05 08:05:00,66.3,25.2,30.17,NW,305,3.5,3.5,21,0.00,CLR,,0.00,WeatherDisplay:10.37,2013-10-05 15:05:00,
2013-10-05 08:10:00,66.5,25.3,30.17,WSW,255,4.6,4.6,21,0.00,CLR,,0.00,WeatherDisplay:10.37,2013-10-05 15:10:00,
2013-10-05 08:15:00,67.3,24.8,30.18,WSW,255,8.1,8.1,20,0.00,CLR,,0.00,WeatherDisplay:10.37,2013-10-05 15:15:00,
2013-10-05 08:20:00,67.9,25.3,30.18,WNW,302,5.8,5.8,20,0.00,CLR,,0.00,WeatherDisplay:10.37,2013-10-05 15:20:00,
2013-10-05 08:25:00,68.6,24.7,30.18,WNW,302,8.1,8.1,19,0.00,CLR,,0.00,WeatherDisplay:10.37,2013-10-05 15:25:00,
2013-10-05 08:30:00,69.1,25.1,30.18,WNW,300,6.9,6.9,19,0.00,CLR,,0.00,WeatherDisplay:10.37,2013-10-05 15:30:00,
2013-10-05 08:35:00,69.3,25.2,30.18,WNW,287,6.9,6.9,19,0.00,CLR,,0.00,WeatherDisplay:10.37,2013-10-05 15:35:00,
2013-10-05 08:40:00,69.5,24.1,30.18,NW,326,8.1,8.1,18,0.00,CLR,,0.00,WeatherDisplay:10.37,2013-10-05 15:40:00,
2013-10-05 08:45:00,69.8,25.6,30.18,NW,305,4.0,4.0,19,0.00,CLR,,0.00,WeatherDisplay:10.37,2013-10-05 15:45:00,
2013-10-05 08:50:00,70.0,25.8,30.19,NW,314,5.8,5.8,19,0.00,CLR,,0.00,WeatherDisplay:10.37,2013-10-05 15:50:00,
2013-10-05 08:55:00,70.2,24.7,30.19,NW,326,5.8,5.8,18,0.00,CLR,,0.00,WeatherDisplay:10.37,2013-10-05 15:55:00,
2013-10-05 09:00:00,70.3,26.1,30.19,WNW,302,4.6,4.6,19,0.00,CLR,,0.00,WeatherDisplay:10.37,2013-10-05 16:00:00,
2013-10-05 09:05:00,70.4,26.1,30.19,North,353,5.8,5.8,19,0.00,CLR,,0.00,WeatherDisplay:10.37,2013-10-05 16:05:00,
2013-10-05 09:10:00,70.7,26.4,30.19,NNW,328,3.5,3.5,19,0.00,CLR,,0.00,WeatherDisplay:10.37,2013-10-05 16:10:00,
2013-10-05 09:15:00,71.0,25.3,30.19,NNW,329,9.2,9.2,18,0.00,CLR,,0.00,WeatherDisplay:10.37,2013-10-05 16:15:00,
2013-10-05 09:20:00,71.2,25.5,30.19,NW,314,8.1,8.1,18,0.00,CLR,,0.00,WeatherDisplay:10.37,2013-10-05 16:20:00,
2013-10-05 09:25:00,71.6,25.8,30.19,NNW,329,6.9,6.9,18,0.00,CLR,,0.00,WeatherDisplay:10.37,2013-10-05 16:25:00,
2013-10-05 09:30:00,71.8,27.3,30.19,NW,318,6.0,6.0,19,0.00,CLR,,0.00,WeatherDisplay:10.37,2013-10-05 16:30:00,
2013-10-05 09:35:00,72.1,26.2,30.19,NNW,334,8.1,8.1,18,0.00,CLR,,0.00,WeatherDisplay:10.37,2013-10-05 16:35:00,
2013-10-05 09:40:00,72.3,25.0,30.19,NW,314,9.2,9.2,17,0.00,CLR,,0.00,WeatherDisplay:10.37,2013-10-05 16:40:00,
2013-10-05 09:45:00,72.6,27.9,30.19,NNW,333,5.8,5.8,19,0.00,CLR,,0.00,WeatherDisplay:10.37,2013-10-05 16:45:00,
2013-10-05 09:50:00,73.0,27.0,30.19,NW,314,6.0,6.0,18,0.00,CLR,,0.00,WeatherDisplay:10.37,2013-10-05 16:50:00,
2013-10-05 09:55:00,73.2,24.3,30.19,WNW,300,5.8,5.8,16,0.00,CLR,,0.00,WeatherDisplay:10.37,2013-10-05 16:55:00,
2013-10-05 10:00:00,73.5,26.0,30.19,WNW,302,11.5,11.5,17,0.00,CLR,,0.00,WeatherDisplay:10.37,2013-10-05 17:00:00,
2013-10-05 10:05:00,73.7,26.1,30.19,NNW,329,5.8,5.8,17,0.00,CLR,,0.00,WeatherDisplay:10.37,2013-10-05 17:05:00,
2013-10-05 10:10:00,73.9,24.8,30.19,NW,319,9.2,9.2,16,0.00,CLR,,0.00,WeatherDisplay:10.37,2013-10-05 17:10:00,
2013-10-05 10:15:00,74.2,26.5,30.19,NW,311,4.6,4.7,17,0.00,CLR,,0.00,WeatherDisplay:10.37,2013-10-05 17:15:00,
2013-10-05 10:20:00,74.5,25.3,30.19,NNE,20,6.9,6.9,16,0.00,CLR,,0.00,WeatherDisplay:10.37,2013-10-05 17:20:00,
2013-10-05 10:25:00,74.7,25.5,30.19,WNW,303,8.1,8.1,16,0.00,CLR,,0.00,WeatherDisplay:10.37,2013-10-05 17:25:00,
2013-10-05 10:30:00,75.1,25.8,30.19,NW,322,5.8,5.8,16,0.00,CLR,,0.00,WeatherDisplay:10.37,2013-10-05 17:30:00,
2013-10-05 10:35:00,75.5,26.1,30.19,WNW,299,6.9,6.9,16,0.00,CLR,,0.00,WeatherDisplay:10.37,2013-10-05 17:35:00,
2013-10-05 10:40:00,75.6,26.2,30.19,NW,307,5.8,5.8,16,0.00,CLR,,0.00,WeatherDisplay:10.37,2013-10-05 17:40:00,
2013-10-05 10:45:00,75.9,27.9,30.19,WNW,298,4.6,4.6,17,0.00,CLR,,0.00,WeatherDisplay:10.37,2013-10-05 17:45:00,
2013-10-05 10:50:00,76.3,25.2,30.19,NW,319,11.5,11.5,15,0.00,CLR,,0.00,WeatherDisplay:10.37,2013-10-05 17:50:00,
2013-10-05 10:55:00,76.6,27.0,30.19,NW,314,4.0,4.0,16,0.00,CLR,,0.00,WeatherDisplay:10.37,2013-10-05 17:55:00,
2013-10-05 11:00:00,77.1,25.9,30.19,WNW,290,4.6,5.2,15,0.00,CLR,,0.00,WeatherDisplay:10.37,2013-10-05 18:00:00,
2013-10-05 11:05:00,77.5,26.2,30.19,NNW,336,5.8,5.8,15,0.00,CLR,,0.00,WeatherDisplay:10.37,2013-10-05 18:05:00,
2013-10-05 11:10:00,77.7,26.3,30.19,NNW,330,8.1,8.1,15,0.00,CLR,,0.00,WeatherDisplay:10.37,2013-10-05 18:10:00,
2013-10-05 11:15:00,78.3,26.8,30.18,West,271,5.8,5.8,15,0.00,CLR,,0.00,WeatherDisplay:10.37,2013-10-05 18:15:00,
2013-10-05 11:20:00,78.7,27.1,30.18,NW,323,5.8,5.8,15,0.00,CLR,,0.00,WeatherDisplay:10.37,2013-10-05 18:20:00,
2013-10-05 11:25:00,79.0,27.4,30.18,NNW,330,5.0,5.0,15,0.00,CLR,,0.00,WeatherDisplay:10.37,2013-10-05 18:25:00,
2013-10-05 11:30:00,79.3,25.9,30.18,NNW,338,4.6,4.6,14,0.00,CLR,,0.00,WeatherDisplay:10.37,2013-10-05 18:30:00,
2013-10-05 11:35:00,79.7,26.3,30.18,NW,322,9.2,9.2,14,0.00,CLR,,0.00,WeatherDisplay:10.37,2013-10-05 18:35:00,
2013-10-05 11:40:00,80.1,24.8,30.18,NW,322,8.1,8.1,13,0.00,CLR,,0.00,WeatherDisplay:10.37,2013-10-05 18:40:00,
2013-10-05 11:45:00,80.5,26.9,30.18,NW,312,3.5,3.5,14,0.00,CLR,,0.00,WeatherDisplay:10.37,2013-10-05 18:45:00,
2013-10-05 11:50:00,80.8,27.1,30.17,WNW,293,1.2,1.2,14,0.00,CLR,,0.00,WeatherDisplay:10.37,2013-10-05 18:50:00,
2013-10-05 11:55:00,81.2,29.1,30.17,NNW,328,3.5,3.5,15,0.00,CLR,,0.00,WeatherDisplay:10.37,2013-10-05 18:55:00,
2013-10-05 12:00:00,82.3,26.5,30.17,WNW,298,3.5,3.5,13,0.00,CLR,,0.00,WeatherDisplay:10.37,2013-10-05 19:00:00,
2013-10-05 12:05:00,83.7,25.7,30.17,WSW,246,3.5,3.5,12,0.00,CLR,,0.00,WeatherDisplay:10.37,2013-10-05 19:05:00,
2013-10-05 12:10:00,83.8,23.7,30.17,NNW,345,3.5,3.5,11,0.00,CLR,,0.00,WeatherDisplay:10.37,2013-10-05 19:10:00,
2013-10-05 12:15:00,83.0,27.1,30.17,SSW,208,4.0,4.0,13,0.00,CLR,,0.00,WeatherDisplay:10.37,2013-10-05 19:15:00,
2013-10-05 12:20:00,84.1,26.0,30.17,SW,218,5.8,5.8,12,0.00,CLR,,0.00,WeatherDisplay:10.37,2013-10-05 19:20:00,
2013-10-05 12:25:00,84.8,26.5,30.17,SSW,194,3.5,3.5,12,0.00,CLR,,0.00,WeatherDisplay:10.37,2013-10-05 19:25:00,
2013-10-05 12:30:00,85.4,27.0,30.17,WNW,295,5.8,5.8,12,0.00,CLR,,0.00,WeatherDisplay:10.37,2013-10-05 19:30:00,
2013-10-05 12:35:00,85.7,25.1,30.17,WSW,244,5.8,5.8,11,0.00,CLR,,0.00,WeatherDisplay:10.37,2013-10-05 19:35:00,
2013-10-05 12:40:00,86.3,27.7,30.16,WSW,246,3.5,3.5,12,0.00,CLR,,0.00,WeatherDisplay:10.37,2013-10-05 19:40:00,
2013-10-05 12:45:00,85.4,24.9,30.16,WNW,301,3.5,3.5,11,0.00,CLR,,0.00,WeatherDisplay:10.37,2013-10-05 19:45:00,
2013-10-05 12:50:00,84.8,26.5,30.16,WSW,249,3.5,3.5,12,0.00,CLR,,0.00,WeatherDisplay:10.37,2013-10-05 19:50:00,
2013-10-05 12:55:00,85.0,26.7,30.16,NW,316,4.0,4.0,12,0.00,CLR,,0.00,WeatherDisplay:10.37,2013-10-05 19:55:00,
2013-10-05 13:00:00,84.3,24.0,30.16,SW,226,3.5,3.5,11,0.00,CLR,,0.00,WeatherDisplay:10.37,2013-10-05 20:00:00,
2013-10-05 13:05:00,85.2,22.5,30.16,SSE,150,3.5,3.5,10,0.00,CLR,,0.00,WeatherDisplay:10.37,2013-10-05 20:05:00,
2013-10-05 13:10:00,86.0,25.4,30.15,West,268,3.5,3.5,11,0.00,CLR,,0.00,WeatherDisplay:10.37,2013-10-05 20:10:00,
2013-10-05 13:15:00,86.7,25.9,30.15,SW,236,3.5,3.5,11,0.00,CLR,,0.00,WeatherDisplay:10.37,2013-10-05 20:15:00,
2013-10-05 13:20:00,87.2,26.3,30.15,SE,133,3.5,3.5,11,0.00,CLR,,0.00,WeatherDisplay:10.37,2013-10-05 20:20:00,
2013-10-05 13:25:00,87.5,26.5,30.15,SSW,201,3.5,3.5,11,0.00,CLR,,0.00,WeatherDisplay:10.37,2013-10-05 20:25:00,
2013-10-05 13:30:00,87.6,24.3,30.15,SW,229,3.5,3.5,10,0.00,CLR,,0.00,WeatherDisplay:10.37,2013-10-05 20:30:00,
2013-10-05 13:35:00,86.8,23.7,30.14,NW,318,4.0,4.0,10,0.00,CLR,,0.00,WeatherDisplay:10.37,2013-10-05 20:35:00,
2013-10-05 13:40:00,85.6,22.8,30.14,NW,323,2.3,2.3,10,0.00,CLR,,0.00,WeatherDisplay:10.37,2013-10-05 20:40:00,
2013-10-05 13:45:00,85.1,24.7,30.14,North,358,3.5,3.5,11,0.00,CLR,,0.00,WeatherDisplay:10.37,2013-10-05 20:45:00,
2013-10-05 13:50:00,84.9,26.6,30.14,NNW,345,3.5,3.5,12,0.00,CLR,,0.00,WeatherDisplay:10.37,2013-10-05 20:50:00,
2013-10-05 13:55:00,86.2,27.6,30.13,SW,236,4.0,4.0,12,0.00,CLR,,0.00,WeatherDisplay:10.37,2013-10-05 20:55:00,
2013-10-05 14:00:00,87.3,26.4,30.13,SSW,200,2.3,2.3,11,0.00,CLR,,0.00,WeatherDisplay:10.37,2013-10-05 21:00:00,
2013-10-05 14:05:00,88.4,27.2,30.13,WSW,240,3.5,3.5,11,0.00,CLR,,0.00,WeatherDisplay:10.37,2013-10-05 21:05:00,
2013-10-05 14:10:00,88.8,25.2,30.13,SSW,193,3.5,3.5,10,0.00,CLR,,0.00,WeatherDisplay:10.37,2013-10-05 21:10:00,
2013-10-05 14:15:00,88.1,24.7,30.12,ENE,70,2.3,2.3,10,0.00,CLR,,0.00,WeatherDisplay:10.37,2013-10-05 21:15:00,
2013-10-05 14:20:00,87.9,26.8,30.12,South,183,3.5,3.5,11,0.00,CLR,,0.00,WeatherDisplay:10.37,2013-10-05 21:20:00,
2013-10-05 14:25:00,88.7,25.1,30.12,ESE,118,3.5,3.5,10,0.00,CLR,,0.00,WeatherDisplay:10.37,2013-10-05 21:25:00,
2013-10-05 14:30:00,88.3,24.8,30.12,SSW,193,3.5,3.5,10,0.00,CLR,,0.00,WeatherDisplay:10.37,2013-10-05 21:30:00,
2013-10-05 14:35:00,88.4,24.9,30.12,South,187,4.6,4.6,10,0.00,CLR,,0.00,WeatherDisplay:10.37,2013-10-05 21:35:00,
2013-10-05 14:40:00,88.5,25.0,30.12,SSE,163,5.8,5.8,10,0.00,CLR,,0.00,WeatherDisplay:10.37,2013-10-05 21:40:00,
2013-10-05 14:45:00,87.8,24.4,30.12,SSE,165,4.6,4.6,10,0.00,CLR,,0.00,WeatherDisplay:10.37,2013-10-05 21:45:00,
2013-10-05 14:50:00,87.6,24.3,30.12,SSE,167,5.8,5.8,10,0.00,CLR,,0.00,WeatherDisplay:10.37,2013-10-05 21:50:00,
2013-10-05 14:55:00,87.7,26.7,30.12,West,278,3.5,3.5,11,0.00,CLR,,0.00,WeatherDisplay:10.37,2013-10-05 21:55:00,
2013-10-05 15:00:00,88.7,25.1,30.11,NW,314,5.8,5.8,10,0.00,CLR,,0.00,WeatherDisplay:10.37,2013-10-05 22:00:00,
2013-10-05 15:05:00,88.7,25.1,30.11,West,262,2.3,2.3,10,0.00,CLR,,0.00,WeatherDisplay:10.37,2013-10-05 22:05:00,
2013-10-05 15:10:00,89.2,25.5,30.11,SSW,194,4.6,4.6,10,0.00,CLR,,0.00,WeatherDisplay:10.37,2013-10-05 22:10:00,
2013-10-05 15:15:00,89.2,25.5,30.11,South,172,3.5,3.5,10,0.00,CLR,,0.00,WeatherDisplay:10.37,2013-10-05 22:15:00,
2013-10-05 15:20:00,88.9,25.3,30.11,SW,236,8.0,8.0,10,0.00,CLR,,0.00,WeatherDisplay:10.37,2013-10-05 22:20:00,
2013-10-05 15:25:00,88.5,25.0,30.11,SSW,195,3.5,3.5,10,0.00,CLR,,0.00,WeatherDisplay:10.37,2013-10-05 22:25:00,
2013-10-05 15:30:00,88.8,25.2,30.11,SSW,210,2.3,2.3,10,0.00,CLR,,0.00,WeatherDisplay:10.37,2013-10-05 22:30:00,
2013-10-05 15:35:00,88.9,25.3,30.11,SE,146,3.5,3.5,10,0.00,CLR,,0.00,WeatherDisplay:10.37,2013-10-05 22:35:00,
2013-10-05 15:40:00,88.6,27.3,30.11,SW,218,4.6,4.6,11,0.00,CLR,,0.00,WeatherDisplay:10.37,2013-10-05 22:40:00,
2013-10-05 15:45:00,88.0,26.9,30.11,SE,135,8.1,8.1,11,0.00,CLR,,0.00,WeatherDisplay:10.37,2013-10-05 22:45:00,
2013-10-05 15:50:00,87.8,26.7,30.10,South,184,2.3,2.3,11,0.00,CLR,,0.00,WeatherDisplay:10.37,2013-10-05 22:50:00,
2013-10-05 15:55:00,88.6,29.5,30.10,SSE,161,7.0,7.0,12,0.00,CLR,,0.00,WeatherDisplay:10.37,2013-10-05 22:55:00,
2013-10-05 16:00:00,88.0,26.9,30.10,South,191,4.6,4.6,11,0.00,CLR,,0.00,WeatherDisplay:10.37,2013-10-05 23:00:00,
2013-10-05 16:05:00,88.7,27.4,30.10,WSW,244,4.0,4.0,11,0.00,CLR,,0.00,WeatherDisplay:10.37,2013-10-05 23:05:00,
2013-10-05 16:10:00,88.9,27.6,30.10,WNW,294,5.8,5.8,11,0.00,CLR,,0.00,WeatherDisplay:10.37,2013-10-05 23:10:00,
2013-10-05 16:15:00,88.7,27.4,30.10,ESE,121,8.1,8.1,11,0.00,CLR,,0.00,WeatherDisplay:10.37,2013-10-05 23:15:00,
2013-10-05 16:20:00,87.8,26.7,30.10,SW,218,4.6,4.6,11,0.00,CLR,,0.00,WeatherDisplay:10.37,2013-10-05 23:20:00,
2013-10-05 16:25:00,87.8,28.9,30.10,SSE,162,9.2,9.2,12,0.00,CLR,,0.00,WeatherDisplay:10.37,2013-10-05 23:25:00,
2013-10-05 16:30:00,87.6,26.6,30.10,SSW,195,4.6,4.6,11,0.00,CLR,,0.00,WeatherDisplay:10.37,2013-10-05 23:30:00,
2013-10-05 16:35:00,87.4,26.4,30.10,SSW,200,3.5,3.5,11,0.00,CLR,,0.00,WeatherDisplay:10.37,2013-10-05 23:35:00,
2013-10-05 16:40:00,87.2,28.4,30.10,ESE,115,6.9,6.9,12,0.00,CLR,,0.00,WeatherDisplay:10.37,2013-10-05 23:40:00,
2013-10-05 16:45:00,86.3,27.7,30.10,SSW,204,5.8,5.8,12,0.00,CLR,,0.00,WeatherDisplay:10.37,2013-10-05 23:45:00,
2013-10-05 16:50:00,86.0,27.5,30.10,SSW,198,5.8,5.8,12,0.00,CLR,,0.00,WeatherDisplay:10.37,2013-10-05 23:50:00,
2013-10-05 16:55:00,85.8,27.3,30.10,SSE,164,4.0,4.0,12,0.00,CLR,,0.00,WeatherDisplay:10.37,2013-10-05 23:55:00,
2013-10-05 17:00:00,85.8,27.3,30.10,SSW,203,4.6,4.6,12,0.00,CLR,,0.00,WeatherDisplay:10.37,2013-10-06 00:00:00,
2013-10-05 17:05:00,85.5,27.1,30.10,South,172,6.9,6.9,12,0.00,CLR,,0.00,WeatherDisplay:10.37,2013-10-06 00:05:00,
2013-10-05 17:10:00,84.9,26.6,30.10,SSW,211,4.6,4.6,12,0.00,CLR,,0.00,WeatherDisplay:10.37,2013-10-06 00:10:00,
2013-10-05 17:15:00,84.8,28.5,30.10,SSW,211,2.3,2.3,13,0.00,CLR,,0.00,WeatherDisplay:10.37,2013-10-06 00:15:00,
2013-10-05 17:20:00,84.6,28.3,30.09,SSW,205,3.5,3.5,13,0.00,CLR,,0.00,WeatherDisplay:10.37,2013-10-06 00:20:00,
2013-10-05 17:25:00,84.5,30.1,30.09,WSW,246,3.5,3.5,14,0.00,CLR,,0.00,WeatherDisplay:10.37,2013-10-06 00:25:00,
2013-10-05 17:30:00,84.4,28.2,30.09,South,173,3.5,3.5,13,0.00,CLR,,0.00,WeatherDisplay:10.37,2013-10-06 00:30:00,
2013-10-05 17:35:00,84.1,27.9,30.09,SW,222,3.5,3.5,13,0.00,CLR,,0.00,WeatherDisplay:10.37,2013-10-06 00:35:00,
2013-10-05 17:40:00,83.8,29.5,30.10,SSW,198,2.3,2.3,14,0.00,CLR,,0.00,WeatherDisplay:10.37,2013-10-06 00:40:00,
2013-10-05 17:45:00,83.6,29.3,30.09,SSE,164,2.3,2.3,14,0.00,CLR,,0.00,WeatherDisplay:10.37,2013-10-06 00:45:00,
2013-10-05 17:50:00,83.3,29.1,30.10,SSW,193,3.5,3.5,14,0.00,CLR,,0.00,WeatherDisplay:10.37,2013-10-06 00:50:00,
2013-10-05 17:55:00,83.0,28.9,30.09,SSE,162,3.5,3.5,14,0.00,CLR,,0.00,WeatherDisplay:10.37,2013-10-06 00:55:00,
2013-10-05 18:00:00,82.7,30.3,30.09,South,169,1.2,1.2,15,0.00,CLR,,0.00,WeatherDisplay:10.37,2013-10-06 01:00:00,
2013-10-05 18:05:00,82.3,30.0,30.10,South,177,2.3,2.3,15,0.00,CLR,,0.00,WeatherDisplay:10.37,2013-10-06 01:05:00,
2013-10-05 18:10:00,81.9,29.7,30.10,South,170,1.2,1.2,15,0.00,CLR,,0.00,WeatherDisplay:10.37,2013-10-06 01:10:00,
2013-10-05 18:15:00,81.5,31.0,30.10,SSW,212,2.3,2.3,16,0.00,CLR,,0.00,WeatherDisplay:10.37,2013-10-06 01:15:00,
2013-10-05 18:20:00,80.8,30.4,30.10,SSW,211,2.3,2.3,16,0.00,CLR,,0.00,WeatherDisplay:10.37,2013-10-06 01:20:00,
2013-10-05 18:25:00,80.0,29.8,30.10,SSE,165,1.2,1.2,16,0.00,CLR,,0.00,WeatherDisplay:10.37,2013-10-06 01:25:00,
2013-10-05 18:30:00,79.2,30.6,30.10,SSE,165,1.2,1.2,17,0.00,CLR,,0.00,WeatherDisplay:10.37,2013-10-06 01:30:00,
2013-10-05 18:35:00,78.4,31.4,30.10,SSE,165,0.0,0.0,18,0.00,CLR,,0.00,WeatherDisplay:10.37,2013-10-06 01:35:00,
2013-10-05 18:40:00,77.5,33.2,30.10,SSE,165,1.2,1.2,20,0.00,CLR,,0.00,WeatherDisplay:10.37,2013-10-06 01:40:00,
2013-10-05 18:45:00,76.8,31.4,30.10,SSE,165,1.2,1.2,19,0.00,CLR,,0.00,WeatherDisplay:10.37,2013-10-06 01:45:00,
2013-10-05 18:50:00,76.0,32.0,30.10,SSE,165,1.2,1.2,20,0.00,CLR,,0.00,WeatherDisplay:10.37,2013-10-06 01:50:00,
2013-10-05 18:55:00,75.2,34.8,30.10,SSE,165,1.2,1.2,23,0.00,CLR,,0.00,WeatherDisplay:10.37,2013-10-06 01:55:00,
2013-10-05 19:00:00,74.3,35.2,30.10,SSE,165,0.0,0.0,24,0.00,CLR,,0.00,WeatherDisplay:10.37,2013-10-06 02:00:00,
2013-10-05 19:05:00,73.6,35.6,30.10,SSE,165,0.0,0.0,25,0.00,CLR,,0.00,WeatherDisplay:10.37,2013-10-06 02:05:00,
2013-10-05 19:10:00,73.0,35.1,30.10,SSE,165,0.0,0.0,25,0.00,CLR,,0.00,WeatherDisplay:10.37,2013-10-06 02:10:00,
2013-10-05 19:15:00,72.3,38.2,30.10,SSE,165,0.0,0.0,29,0.00,CLR,,0.00,WeatherDisplay:10.37,2013-10-06 02:15:00,
2013-10-05 19:20:00,71.5,40.1,30.10,SSE,165,0.0,0.0,32,0.00,CLR,,0.00,WeatherDisplay:10.37,2013-10-06 02:20:00,
2013-10-05 19:25:00,69.8,36.9,30.10,SSE,165,1.2,1.2,30,0.00,CLR,,0.00,WeatherDisplay:10.37,2013-10-06 02:25:00,
2013-10-05 19:30:00,69.4,37.4,30.10,SSE,165,0.0,0.0,31,0.00,CLR,,0.00,WeatherDisplay:10.37,2013-10-06 02:30:00,
2013-10-05 19:35:00,69.7,36.9,30.10,SSE,165,0.0,0.0,30,0.00,CLR,,0.00,WeatherDisplay:10.37,2013-10-06 02:35:00,
2013-10-05 19:40:00,69.4,38.2,30.10,SSE,165,0.0,0.0,32,0.00,CLR,,0.00,WeatherDisplay:10.37,2013-10-06 02:40:00,
2013-10-05 19:45:00,68.7,37.6,30.10,SSE,165,0.0,0.0,32,0.00,CLR,,0.00,WeatherDisplay:10.37,2013-10-06 02:45:00,
2013-10-05 19:50:00,68.2,37.2,30.10,SSE,165,0.0,0.0,32,0.00,CLR,,0.00,WeatherDisplay:10.37,2013-10-06 02:50:00,
2013-10-05 19:55:00,67.2,37.9,30.10,SSE,165,0.0,0.0,34,0.00,CLR,,0.00,WeatherDisplay:10.37,2013-10-06 02:55:00,
2013-10-05 20:00:00,66.2,39.1,30.10,SSE,165,0.0,0.0,37,0.00,CLR,,0.00,WeatherDisplay:10.37,2013-10-06 03:00:00,
2013-10-05 20:06:00,65.4,37.0,30.10,SSE,165,0.0,0.0,35,0.00,CLR,,0.00,WeatherDisplay:10.37,2013-10-06 03:06:00,
2013-10-05 20:11:00,65.0,36.7,30.10,SSE,165,0.0,0.0,35,0.00,CLR,,0.00,WeatherDisplay:10.37,2013-10-06 03:11:00,
2013-10-05 20:16:00,64.1,37.3,30.10,SSE,163,1.2,1.2,37,0.00,CLR,,0.00,WeatherDisplay:10.37,2013-10-06 03:16:00,
2013-10-05 20:21:00,62.4,36.4,30.10,SSE,164,0.0,0.0,38,0.00,CLR,,0.00,WeatherDisplay:10.37,2013-10-06 03:21:00,
2013-10-05 20:26:00,61.9,36.7,30.11,SSE,164,0.0,0.0,39,0.00,CLR,,0.00,WeatherDisplay:10.37,2013-10-06 03:26:00,
2013-10-05 20:31:00,61.6,37.0,30.11,SSE,163,0.0,0.0,40,0.00,CLR,,0.00,WeatherDisplay:10.37,2013-10-06 03:31:00,
2013-10-05 20:36:00,61.7,37.7,30.11,SSE,164,1.2,1.2,41,0.00,CLR,,0.00,WeatherDisplay:10.37,2013-10-06 03:36:00,
2013-10-05 20:41:00,61.7,37.1,30.11,SSE,165,1.0,1.0,40,0.00,CLR,,0.00,WeatherDisplay:10.37,2013-10-06 03:41:00,
2013-10-05 20:46:00,61.3,36.1,30.11,SSE,165,1.2,1.2,39,0.00,CLR,,0.00,WeatherDisplay:10.37,2013-10-06 03:46:00,
2013-10-05 20:51:00,61.1,35.3,30.11,SSE,165,0.0,0.0,38,0.00,CLR,,0.00,WeatherDisplay:10.37,2013-10-06 03:51:00,
2013-10-05 20:56:00,61.2,36.0,30.11,SSE,165,1.2,1.2,39,0.00,CLR,,0.00,WeatherDisplay:10.37,2013-10-06 03:56:00,
2013-10-05 21:01:00,60.9,35.1,30.12,SSE,165,2.3,2.3,38,0.00,CLR,,0.00,WeatherDisplay:10.37,2013-10-06 04:01:00,
2013-10-05 21:04:00,60.7,35.6,30.12,SSE,167,2.3,2.3,39,0.00,CLR,,0.00,WeatherDisplay:10.37,2013-10-06 04:04:00,
2013-10-05 21:05:00,60.6,35.5,30.12,South,171,2.3,2.3,39,0.00,CLR,,0.00,WeatherDisplay:10.37,2013-10-06 04:05:00,
2013-10-05 21:08:00,60.4,35.9,30.12,South,171,1.2,1.2,40,0.00,CLR,,0.00,WeatherDisplay:10.37,2013-10-06 04:08:00,
2013-10-05 21:13:00,59.8,35.4,30.12,South,170,1.2,1.2,40,0.00,CLR,,0.00,WeatherDisplay:10.37,2013-10-06 04:13:00,
2013-10-05 21:18:00,59.1,36.0,30.12,South,170,0.0,0.0,42,0.00,CLR,,0.00,WeatherDisplay:10.37,2013-10-06 04:18:00,
2013-10-05 21:23:00,58.4,35.4,30.12,South,170,0.0,0.0,42,0.00,CLR,,0.00,WeatherDisplay:10.37,2013-10-06 04:23:00,
2013-10-05 21:28:00,58.9,35.2,30.12,South,171,0.0,0.0,41,0.00,CLR,,0.00,WeatherDisplay:10.37,2013-10-06 04:28:00,
2013-10-05 21:33:00,59.1,34.8,30.12,South,170,1.2,1.2,40,0.00,CLR,,0.00,WeatherDisplay:10.37,2013-10-06 04:33:00,
2013-10-05 21:38:00,59.4,35.1,30.12,South,170,0.0,0.0,40,0.00,CLR,,0.00,WeatherDisplay:10.37,2013-10-06 04:38:00,
2013-10-05 21:43:00,59.4,35.1,30.12,South,170,0.0,0.0,40,0.00,CLR,,0.00,WeatherDisplay:10.37,2013-10-06 04:43:00,
2013-10-05 21:48:00,59.2,34.9,30.12,South,171,0.0,0.0,40,0.00,CLR,,0.00,WeatherDisplay:10.37,2013-10-06 04:48:00,
2013-10-05 21:53:00,58.8,35.1,30.12,South,170,0.0,0.0,41,0.00,CLR,,0.00,WeatherDisplay:10.37,2013-10-06 04:53:00,
2013-10-05 21:58:00,58.3,34.7,30.12,South,171,0.0,0.0,41,0.00,CLR,,0.00,WeatherDisplay:10.37,2013-10-06 04:58:00,
2013-10-05 22:03:00,58.5,34.9,30.12,South,171,0.0,0.0,41,0.00,CLR,,0.00,WeatherDisplay:10.37,2013-10-06 05:03:00,
2013-10-05 22:08:00,58.1,35.1,30.12,South,170,0.0,0.0,42,0.00,CLR,,0.00,WeatherDisplay:10.37,2013-10-06 05:08:00,
2013-10-05 22:13:00,57.4,35.6,30.12,South,170,0.0,0.0,44,0.00,CLR,,0.00,WeatherDisplay:10.37,2013-10-06 05:13:00,
2013-10-05 22:18:00,57.1,35.4,30.12,South,171,1.0,1.0,44,0.00,CLR,,0.00,WeatherDisplay:10.37,2013-10-06 05:18:00,
2013-10-05 22:23:00,57.0,35.3,30.12,East,81,1.2,1.2,44,0.00,CLR,,0.00,WeatherDisplay:10.37,2013-10-06 05:23:00,
2013-10-05 22:28:00,57.1,35.4,30.12,North,6,2.3,2.3,44,0.00,CLR,,0.00,WeatherDisplay:10.37,2013-10-06 05:28:00,
2013-10-05 22:33:00,56.7,35.0,30.12,North,349,1.2,0.0,44,0.00,CLR,,0.00,WeatherDisplay:10.37,2013-10-06 05:33:00,
2013-10-05 22:38:00,56.6,35.5,30.12,North,349,0.0,0.0,45,0.00,CLR,,0.00,WeatherDisplay:10.37,2013-10-06 05:38:00,
2013-10-05 22:43:00,56.7,35.0,30.12,NNE,25,2.3,2.3,44,0.00,CLR,,0.00,WeatherDisplay:10.37,2013-10-06 05:43:00,
2013-10-05 22:48:00,57.4,35.1,30.12,NNE,25,0.0,0.0,43,0.00,CLR,,0.00,WeatherDisplay:10.37,2013-10-06 05:48:00,
2013-10-05 22:53:00,57.0,34.7,30.12,NNE,25,0.0,0.0,43,0.00,CLR,,0.00,WeatherDisplay:10.37,2013-10-06 05:53:00,
2013-10-05 22:58:00,56.9,35.2,30.13,NNE,25,0.0,0.0,44,0.00,CLR,,0.00,WeatherDisplay:10.37,2013-10-06 05:58:00,
2013-10-05 23:03:00,56.5,35.4,30.13,NNE,25,0.0,0.0,45,0.00,CLR,,0.00,WeatherDisplay:10.37,2013-10-06 06:03:00,
2013-10-05 23:08:00,55.9,35.4,30.13,NNE,25,0.0,0.0,46,0.00,CLR,,0.00,WeatherDisplay:10.37,2013-10-06 06:08:00,
2013-10-05 23:13:00,55.4,34.9,30.13,NNE,25,0.0,0.0,46,0.00,CLR,,0.00,WeatherDisplay:10.37,2013-10-06 06:13:00,
2013-10-05 23:18:00,55.5,35.6,30.13,NNE,25,1.0,1.0,47,0.00,CLR,,0.00,WeatherDisplay:10.37,2013-10-06 06:18:00,
2013-10-05 23:23:00,55.3,35.4,30.13,NNE,25,0.0,0.0,47,0.00,CLR,,0.00,WeatherDisplay:10.37,2013-10-06 06:23:00,
2013-10-05 23:28:00,54.9,36.1,30.13,NNE,24,0.0,0.0,49,0.00,CLR,,0.00,WeatherDisplay:10.37,2013-10-06 06:28:00,
2013-10-05 23:33:00,54.4,35.6,30.13,NNE,25,0.0,0.0,49,0.00,CLR,,0.00,WeatherDisplay:10.37,2013-10-06 06:33:00,
2013-10-05 23:38:00,54.1,36.4,30.13,NNE,25,0.0,0.0,51,0.00,CLR,,0.00,WeatherDisplay:10.37,2013-10-06 06:38:00,
2013-10-05 23:43:00,53.6,35.9,30.13,NNE,25,1.0,1.0,51,0.00,CLR,,0.00,WeatherDisplay:10.37,2013-10-06 06:43:00,
2013-10-05 23:48:00,52.6,35.5,30.13,NNE,25,1.2,1.2,52,0.00,CLR,,0.00,WeatherDisplay:10.37,2013-10-06 06:48:00,
2013-10-05 23:53:00,52.1,35.0,30.13,North,1,1.2,1.2,52,0.00,CLR,,0.00,WeatherDisplay:10.37,2013-10-06 06:53:00,
2013-10-05 23:58:00,51.7,35.1,30.13,North,354,2.0,2.0,53,0.00,CLR,,0.00,WeatherDisplay:10.37,2013-10-06 06:58:00,